Time,TemperatureF,DewpointF,PressureIn,WindDirection,WindDirectionDegrees,WindSpeedMPH,WindSpeedGustMPH,Humidity,HourlyPrecipIn,Conditions,Clouds,dailyrainin,SoftwareType,DateUTC
2013-03-01 00:14:00,35.3,24.0,30.05,NW,308,7.0,16.0,64,0.00,,,0.00,weatherlink.com 1.10,2013-03-01 05:14:00,
2013-03-01 00:29:00,34.9,24.0,30.06,NNW,328,3.0,18.0,64,0.00,,,0.00,weatherlink.com 1.10,2013-03-01 05:29:00,
2013-03-01 00:44:00,34.8,24.0,30.06,NW,314,6.0,14.0,65,0.00,,,0.00,weatherlink.com 1.10,2013-03-01 05:44:00,
2013-03-01 00:59:00,34.9,24.0,30.06,WNW,297,5.0,12.0,65,0.00,,,0.00,weatherlink.com 1.10,2013-03-01 05:59:00,
2013-03-01 01:14:00,34.9,24.0,30.07,NNW,346,5.0,12.0,65,0.00,,,0.00,weatherlink.com 1.10,2013-03-01 06:14:00,
2013-03-01 01:29:00,34.7,24.0,30.07,NNW,335,1.0,10.0,65,0.00,,,0.00,weatherlink.com 1.10,2013-03-01 06:29:00,
2013-03-01 01:44:00,34.6,24.0,30.07,NNW,330,2.0,9.0,66,0.00,,,0.00,weatherlink.com 1.10,2013-03-01 06:44:00,
2013-03-01 01:59:00,34.6,24.0,30.07,NW,320,4.0,7.0,66,0.00,,,0.00,weatherlink.com 1.10,2013-03-01 06:59:00,
2013-03-01 02:14:00,34.6,24.0,30.06,NW,324,0.0,7.0,66,0.00,,,0.00,weatherlink.com 1.10,2013-03-01 07:14:00,
2013-03-01 02:29:00,34.6,25.0,30.07,NNW,345,2.0,9.0,67,0.00,,,0.00,weatherlink.com 1.10,2013-03-01 07:29:00,
2013-03-01 02:44:00,34.7,24.0,30.06,NW,304,4.0,9.0,66,0.00,,,0.00,weatherlink.com 1.10,2013-03-01 07:44:00,
2013-03-01 02:59:00,34.8,25.0,30.06,North,6,0.0,11.0,67,0.00,,,0.00,weatherlink.com 1.10,2013-03-01 07:59:00,
2013-03-01 03:29:00,34.9,25.0,30.06,NNW,330,3.0,8.0,67,0.00,,,0.00,weatherlink.com 1.10,2013-03-01 08:29:00,
2013-03-01 03:44:00,34.9,25.0,30.06,NW,322,3.0,8.0,67,0.00,,,0.00,weatherlink.com 1.10,2013-03-01 08:44:00,
2013-03-01 03:59:00,34.9,25.0,30.06,West,281,0.0,9.0,68,0.00,,,0.00,weatherlink.com 1.10,2013-03-01 08:59:00,
2013-03-01 04:14:00,34.9,25.0,30.06,NW,310,0.0,8.0,68,0.00,,,0.00,weatherlink.com 1.10,2013-03-01 09:14:00,
2013-03-01 04:29:00,34.9,25.0,30.06,NNW,330,7.0,9.0,68,0.00,,,0.00,weatherlink.com 1.10,2013-03-01 09:29:00,
2013-03-01 04:44:00,34.9,25.0,30.06,NW,322,6.0,6.0,68,0.00,,,0.00,weatherlink.com 1.10,2013-03-01 09:44:00,
2013-03-01 04:59:00,34.9,25.0,30.07,NNW,328,0.0,10.0,68,0.00,,,0.00,weatherlink.com 1.10,2013-03-01 09:59:00,
2013-03-01 05:14:00,35.0,25.0,30.07,NW,314,1.0,10.0,68,0.00,,,0.00,weatherlink.com 1.10,2013-03-01 10:14:00,
2013-03-01 05:29:00,34.9,25.0,30.06,WNW,302,1.0,7.0,68,0.00,,,0.00,weatherlink.com 1.10,2013-03-01 10:29:00,
2013-03-01 05:44:00,34.9,25.0,30.07,NW,307,3.0,8.0,68,0.00,,,0.00,weatherlink.com 1.10,2013-03-01 10:44:00,
2013-03-01 05:59:00,34.9,26.0,30.06,North,357,1.0,9.0,69,0.00,,,0.00,weatherlink.com 1.10,2013-03-01 10:59:00,
2013-03-01 06:14:00,34.8,26.0,30.07,WNW,299,4.0,8.0,69,0.00,,,0.00,weatherlink.com 1.10,2013-03-01 11:14:00,
2013-03-01 06:29:00,34.9,26.0,30.07,NNE,27,3.0,8.0,69,0.00,,,0.00,weatherlink.com 1.10,2013-03-01 11:29:00,
2013-03-01 06:44:00,34.8,26.0,30.06,NNW,333,3.0,6.0,70,0.00,,,0.00,weatherlink.com 1.10,2013-03-01 11:44:00,
2013-03-01 06:59:00,34.7,26.0,30.07,WSW,255,4.0,7.0,70,0.00,,,0.00,weatherlink.com 1.10,2013-03-01 11:59:00,
2013-03-01 07:15:00,34.6,26.0,30.07,NNW,333,1.0,7.0,70,0.00,,,0.00,weatherlink.com 1.10,2013-03-01 12:15:00,
2013-03-01 07:29:00,34.8,26.0,30.07,West,278,1.0,6.0,70,0.00,,,0.00,weatherlink.com 1.10,2013-03-01 12:29:00,
2013-03-01 07:44:00,34.8,26.0,30.07,WNW,294,2.0,10.0,70,0.00,,,0.00,weatherlink.com 1.10,2013-03-01 12:44:00,
2013-03-01 07:59:00,35.0,26.0,30.08,NW,307,4.0,11.0,69,0.00,,,0.00,weatherlink.com 1.10,2013-03-01 12:59:00,
2013-03-01 08:14:00,35.0,26.0,30.08,NW,323,6.0,11.0,69,0.00,,,0.00,weatherlink.com 1.10,2013-03-01 13:14:00,
2013-03-01 08:29:00,35.6,26.0,30.09,WNW,285,4.0,9.0,68,0.00,,,0.00,weatherlink.com 1.10,2013-03-01 13:29:00,
2013-03-01 08:44:00,35.8,26.0,30.09,WNW,300,1.0,7.0,68,0.00,,,0.00,weatherlink.com 1.10,2013-03-01 13:44:00,
2013-03-01 08:59:00,36.2,27.0,30.10,WNW,290,3.0,12.0,68,0.00,,,0.00,weatherlink.com 1.10,2013-03-01 13:59:00,
2013-03-01 09:14:00,36.6,26.0,30.10,NW,323,2.0,10.0,66,0.00,,,0.00,weatherlink.com 1.10,2013-03-01 14:14:00,
2013-03-01 09:29:00,36.9,27.0,30.10,West,264,2.0,13.0,67,0.00,,,0.00,weatherlink.com 1.10,2013-03-01 14:29:00,
2013-03-01 09:44:00,37.2,27.0,30.10,NNE,16,5.0,11.0,66,0.00,,,0.00,weatherlink.com 1.10,2013-03-01 14:44:00,
2013-03-01 09:59:00,37.5,27.0,30.09,NNW,335,4.0,13.0,66,0.00,,,0.00,weatherlink.com 1.10,2013-03-01 14:59:00,
2013-03-01 10:14:00,37.8,27.0,30.09,North,352,3.0,12.0,64,0.00,,,0.00,weatherlink.com 1.10,2013-03-01 15:14:00,
2013-03-01 10:29:00,37.9,27.0,30.10,NNW,342,5.0,9.0,64,0.00,,,0.00,weatherlink.com 1.10,2013-03-01 15:29:00,
2013-03-01 10:45:00,38.2,26.0,30.10,West,266,2.0,10.0,63,0.00,,,0.00,weatherlink.com 1.10,2013-03-01 15:45:00,
2013-03-01 11:00:00,38.2,26.0,30.10,WNW,288,4.0,12.0,63,0.00,,,0.00,weatherlink.com 1.10,2013-03-01 16:00:00,
2013-03-01 11:15:00,38.3,27.0,30.10,NW,304,5.0,13.0,63,0.00,,,0.00,weatherlink.com 1.10,2013-03-01 16:15:00,
2013-03-01 11:30:00,38.7,27.0,30.10,NNW,338,3.0,12.0,62,0.00,,,0.00,weatherlink.com 1.10,2013-03-01 16:30:00,
2013-03-01 11:45:00,39.1,27.0,30.10,NNW,347,10.0,12.0,61,0.00,,,0.00,weatherlink.com 1.10,2013-03-01 16:45:00,
2013-03-01 12:00:00,39.4,26.0,30.09,WNW,291,1.0,13.0,60,0.00,,,0.00,weatherlink.com 1.10,2013-03-01 17:00:00,
2013-03-01 12:15:00,39.6,27.0,30.09,NW,322,0.0,13.0,60,0.00,,,0.00,weatherlink.com 1.10,2013-03-01 17:15:00,
2013-03-01 12:30:00,39.9,26.0,30.09,West,275,3.0,10.0,59,0.00,,,0.00,weatherlink.com 1.10,2013-03-01 17:30:00,
2013-03-01 12:45:00,39.6,27.0,30.08,WSW,257,1.0,13.0,60,0.00,,,0.00,weatherlink.com 1.10,2013-03-01 17:45:00,
2013-03-01 13:00:00,40.0,27.0,30.08,West,268,5.0,10.0,60,0.00,,,0.00,weatherlink.com 1.10,2013-03-01 18:00:00,
2013-03-01 13:15:00,39.8,27.0,30.07,NNW,342,5.0,10.0,61,0.00,,,0.00,weatherlink.com 1.10,2013-03-01 18:15:00,
2013-03-01 13:30:00,40.3,27.0,30.07,WNW,285,2.0,10.0,60,0.00,,,0.00,weatherlink.com 1.10,2013-03-01 18:30:00,
2013-03-01 13:45:00,40.1,27.0,30.06,West,267,2.0,11.0,60,0.00,,,0.00,weatherlink.com 1.10,2013-03-01 18:45:00,
2013-03-01 14:00:00,40.1,27.0,30.06,NE,53,8.0,10.0,59,0.00,,,0.00,weatherlink.com 1.10,2013-03-01 19:00:00,
2013-03-01 14:15:00,40.2,27.0,30.06,WNW,290,4.0,13.0,59,0.00,,,0.00,weatherlink.com 1.10,2013-03-01 19:15:00,
2013-03-01 14:30:00,39.9,27.0,30.06,NW,319,4.0,15.0,60,0.00,,,0.00,weatherlink.com 1.10,2013-03-01 19:30:00,
2013-03-01 14:45:00,40.0,27.0,30.06,NNW,339,6.0,14.0,60,0.00,,,0.00,weatherlink.com 1.10,2013-03-01 19:45:00,
2013-03-01 15:00:00,39.7,27.0,30.05,NW,324,8.0,12.0,61,0.00,,,0.00,weatherlink.com 1.10,2013-03-01 20:00:00,
2013-03-01 15:15:00,40.1,27.0,30.05,NNW,330,4.0,10.0,60,0.00,,,0.00,weatherlink.com 1.10,2013-03-01 20:15:00,
2013-03-01 15:30:00,40.2,27.0,30.05,North,357,4.0,7.0,60,0.00,,,0.00,weatherlink.com 1.10,2013-03-01 20:30:00,
2013-03-01 15:45:00,40.2,27.0,30.05,NNW,347,5.0,14.0,59,0.00,,,0.00,weatherlink.com 1.10,2013-03-01 20:45:00,
2013-03-01 16:00:00,40.0,27.0,30.05,WNW,290,3.0,15.0,60,0.00,,,0.00,weatherlink.com 1.10,2013-03-01 21:00:00,
2013-03-01 16:15:00,39.8,27.0,30.06,WNW,283,2.0,12.0,61,0.00,,,0.00,weatherlink.com 1.10,2013-03-01 21:15:00,
2013-03-01 16:30:00,39.7,27.0,30.06,West,264,3.0,12.0,61,0.00,,,0.00,weatherlink.com 1.10,2013-03-01 21:30:00,
2013-03-01 16:45:00,39.7,27.0,30.06,WNW,286,4.0,11.0,61,0.00,,,0.00,weatherlink.com 1.10,2013-03-01 21:45:00,
2013-03-01 17:00:00,39.5,27.0,30.06,NW,324,5.0,14.0,62,0.00,,,0.00,weatherlink.com 1.10,2013-03-01 22:00:00,
2013-03-01 17:15:00,39.3,28.0,30.06,WNW,285,2.0,8.0,63,0.00,,,0.00,weatherlink.com 1.10,2013-03-01 22:15:00,
2013-03-01 17:30:00,39.3,28.0,30.05,NW,316,6.0,10.0,63,0.00,,,0.00,weatherlink.com 1.10,2013-03-01 22:30:00,
2013-03-01 17:45:00,39.0,27.0,30.06,NW,315,2.0,11.0,63,0.00,,,0.00,weatherlink.com 1.10,2013-03-01 22:45:00,
2013-03-01 18:00:00,39.1,27.0,30.06,NW,316,4.0,12.0,62,0.00,,,0.00,weatherlink.com 1.10,2013-03-01 23:00:00,
2013-03-01 18:15:00,38.9,27.0,30.07,NW,324,9.0,9.0,63,0.00,,,0.00,weatherlink.com 1.10,2013-03-01 23:15:00,
2013-03-01 18:30:00,38.7,27.0,30.07,NW,320,4.0,8.0,63,0.00,,,0.00,weatherlink.com 1.10,2013-03-01 23:30:00,
2013-03-01 18:45:00,38.6,27.0,30.07,NNW,347,1.0,11.0,63,0.00,,,0.00,weatherlink.com 1.10,2013-03-01 23:45:00,
2013-03-01 19:00:00,38.5,27.0,30.08,NNW,342,9.0,11.0,63,0.00,,,0.00,weatherlink.com 1.10,2013-03-02 00:00:00,
2013-03-01 19:15:00,38.4,27.0,30.08,NNW,342,6.0,12.0,64,0.00,,,0.00,weatherlink.com 1.10,2013-03-02 00:15:00,
2013-03-01 19:30:00,38.2,27.0,30.08,West,279,1.0,12.0,65,0.00,,,0.00,weatherlink.com 1.10,2013-03-02 00:30:00,
2013-03-01 19:45:00,38.2,27.0,30.08,WNW,293,5.0,9.0,65,0.00,,,0.00,weatherlink.com 1.10,2013-03-02 00:45:00,
2013-03-01 20:00:00,38.1,28.0,30.09,NNW,335,1.0,6.0,67,0.00,,,0.00,weatherlink.com 1.10,2013-03-02 01:00:00,
2013-03-01 20:15:00,38.0,28.0,30.09,WNW,285,3.0,10.0,67,0.00,,,0.00,weatherlink.com 1.10,2013-03-02 01:15:00,
2013-03-01 20:30:00,37.9,28.0,30.09,NNW,330,4.0,13.0,68,0.00,,,0.00,weatherlink.com 1.10,2013-03-02 01:30:00,
2013-03-01 20:45:00,37.7,28.0,30.09,NW,308,3.0,10.0,69,0.00,,,0.00,weatherlink.com 1.10,2013-03-02 01:45:00,
2013-03-01 21:00:00,37.7,28.0,30.09,West,278,1.0,9.0,69,0.00,,,0.00,weatherlink.com 1.10,2013-03-02 02:00:00,
2013-03-01 21:15:00,37.7,28.0,30.10,WNW,288,0.0,11.0,69,0.00,,,0.00,weatherlink.com 1.10,2013-03-02 02:15:00,
2013-03-01 21:30:00,37.6,28.0,30.10,NW,309,8.0,11.0,69,0.00,,,0.00,weatherlink.com 1.10,2013-03-02 02:30:00,
2013-03-01 21:45:00,37.3,28.0,30.10,NNW,330,8.0,13.0,69,0.00,,,0.00,weatherlink.com 1.10,2013-03-02 02:45:00,
2013-03-01 22:00:00,37.2,28.0,30.10,NW,321,2.0,11.0,70,0.00,,,0.00,weatherlink.com 1.10,2013-03-02 03:00:00,
2013-03-01 22:15:00,37.0,28.0,30.10,West,279,0.0,13.0,71,0.00,,,0.00,weatherlink.com 1.10,2013-03-02 03:15:00,
2013-03-01 22:30:00,36.9,29.0,30.11,NW,324,9.0,11.0,72,0.00,,,0.00,weatherlink.com 1.10,2013-03-02 03:30:00,
2013-03-01 22:45:00,36.4,29.0,30.11,WNW,299,5.0,14.0,75,0.00,,,0.00,weatherlink.com 1.10,2013-03-02 03:45:00,
2013-03-01 23:00:00,36.4,29.0,30.10,NNW,339,3.0,8.0,75,0.00,,,0.00,weatherlink.com 1.10,2013-03-02 04:00:00,
2013-03-01 23:15:00,36.4,29.0,30.09,NW,305,2.0,10.0,74,0.00,,,0.00,weatherlink.com 1.10,2013-03-02 04:15:00,
2013-03-01 23:30:00,36.3,29.0,30.09,NNW,339,1.0,13.0,74,0.00,,,0.00,weatherlink.com 1.10,2013-03-02 04:30:00,
2013-03-01 23:45:00,36.2,29.0,30.08,WNW,291,4.0,12.0,75,0.00,,,0.00,weatherlink.com 1.10,2013-03-02 04:45:00,